FW6684 Weather Reports


Display with metric or nautical units.
time (UTC)temp
F
wind
direction
speed
MPH
gust
MPH
rain 1hr
in
rain 24hr
in
rain mn
in
humidity
%
barometer
mb
20230202201553 50 269 8.0 17.0 0.00 0.00 0.00 83 1029.1
20230202201041 50 234 7.0 13.0 0.00 0.00 0.00 83 1029.1
20230202200542 50 235 5.0 16.0 0.00 0.00 0.00 83 1029.0
20230202200052 50 235 6.0 16.0 0.00 0.00 0.00 83 1028.9
20230202195545 50 260 7.0 16.0 0.00 0.00 0.00 83 1028.7
20230202195041 50 205 5.0 15.0 0.00 0.00 0.00 82 1028.5
20230202194622 50 236 8.0 15.0 0.00 0.00 0.00 82 1028.4
20230202194044 50 231 7.0 15.0 0.00 0.00 0.00 82 1028.4
20230202193541 50 218 9.0 17.0 0.00 0.00 0.00 82 1028.5
20230202193104 50 239 8.0 19.0 0.00 0.00 0.00 82 1028.5
20230202192542 50 255 8.0 19.0 0.00 0.00 0.00 82 1028.5
20230202192042 50 178 8.0 19.0 0.00 0.00 0.00 81 1028.4
20230202191618 50 231 10.0 21.0 0.00 0.00 0.00 81 1028.5
20230202191042 50 224 12.0 21.0 0.00 0.00 0.00 81 1028.3
20230202190541 50 261 10.0 19.0 0.00 0.00 0.00 81 1028.4
20230202190059 50 244 8.0 19.0 0.00 0.00 0.00 81 1028.4
20230202185543 50 245 8.0 17.0 0.00 0.00 0.00 81 1028.4
20230202185045 50 248 10.0 21.0 0.00 0.00 0.00 82 1028.3
20230202184558 50 239 8.0 21.0 0.00 0.00 0.00 82 1028.5
20230202184042 50 192 11.0 21.0 0.00 0.00 0.00 83 1028.5
20230202183543 50 232 8.0 18.0 0.00 0.00 0.00 83 1028.4
20230202183056 50 228 8.0 18.0 0.00 0.00 0.00 83 1028.3
20230202182545 50 237 9.0 18.0 0.00 0.00 0.00 83 1028.3
20230202182047 50 239 10.0 20.0 0.00 0.00 0.00 82 1028.2
20230202181557 50 263 9.0 20.0 0.00 0.00 0.00 82 1028.3
20230202181043 51 219 10.0 19.0 0.00 0.00 0.00 82 1028.3
20230202180544 51 236 5.0 17.0 0.00 0.00 0.00 81 1028.2
20230202180104 51 208 9.0 17.0 0.00 0.00 0.00 81 1028.2
20230202175542 51 205 9.0 17.0 0.00 0.00 0.00 80 1028.2
20230202175042 51 210 10.0 15.0 0.00 0.00 0.00 80 1028.4
20230202174612 51 218 6.0 13.0 0.00 0.00 0.00 80 1028.3
20230202174044 51 252 8.0 14.0 0.00 0.00 0.00 79 1028.2
20230202173542 51 214 7.0 14.0 0.00 0.00 0.00 79 1028.3
20230202173102 51 235 6.0 12.0 0.00 0.00 0.00 79 1028.2
20230202172542 51 223 6.0 12.0 0.00 0.00 0.00 79 1028.2
20230202172046 51 232 4.0 16.0 0.00 0.00 0.00 79 1028.3
20230202171558 51 202 7.0 16.0 0.00 0.00 0.00 78 1028.3
20230202171046 51 220 5.0 17.0 0.00 0.00 0.00 78 1028.2
20230202170543 51 236 4.0 17.0 0.00 0.00 0.00 78 1028.3
20230202170057 51 243 7.0 16.0 0.00 0.00 0.00 78 1028.3
20230202165541 51 211 6.0 16.0 0.00 0.00 0.00 78 1028.4
20230202165044 51 227 6.0 16.0 0.00 0.00 0.00 78 1028.5
20230202164553 51 243 6.0 16.0 0.00 0.00 0.00 78 1028.4
20230202164044 51 222 6.0 18.0 0.00 0.00 0.00 78 1028.4
20230202163543 52 217 9.0 18.0 0.00 0.00 0.00 78 1028.3
20230202163052 52 194 6.0 18.0 0.00 0.00 0.00 78 1028.2
20230202162544 52 200 10.0 18.0 0.00 0.00 0.00 78 1028.2
20230202162043 52 202 7.0 17.0 0.00 0.00 0.00 78 1028.3
20230202161557 52 261 9.0 17.0 0.00 0.00 0.00 77 1028.2
20230202161044 52 229 3.0 17.0 0.00 0.00 0.00 77 1028.1
20230202160542 52 216 5.0 17.0 0.00 0.00 0.00 77 1028.1
20230202160100 52 202 6.0 13.0 0.00 0.00 0.00 77 1028.0
20230202155545 52 209 6.0 12.0 0.00 0.00 0.00 77 1028.1
20230202155044 52 242 5.0 18.0 0.00 0.00 0.00 77 1028.0
20230202154554 52 206 6.0 18.0 0.00 0.00 0.00 78 1027.9
20230202154043 52 240 8.0 18.0 0.00 0.00 0.00 77 1028.0
20230202153540 52 213 11.0 17.0 0.00 0.00 0.00 77 1027.9
20230202153054 52 225 7.0 17.0 0.00 0.00 0.00 77 1027.9
20230202152540 52 238 8.0 16.0 0.00 0.00 0.00 77 1027.9
20230202152044 52 241 6.0 17.0 0.00 0.00 0.00 77 1028.0
20230202151555 52 190 10.0 17.0 0.00 0.00 0.00 76 1027.8
20230202151043 52 214 10.0 17.0 0.00 0.00 0.00 76 1027.8
20230202150543 52 236 9.0 16.0 0.00 0.00 0.00 76 1027.8
20230202150101 52 254 7.0 17.0 0.00 0.00 0.00 76 1027.8
20230202145544 52 205 9.0 17.0 0.00 0.00 0.00 77 1027.7
20230202145043 52 234 5.0 18.0 0.00 0.00 0.00 77 1027.7
20230202144558 52 210 8.0 18.0 0.00 0.00 0.00 76 1027.7
20230202144041 52 234 7.0 18.0 0.00 0.00 0.00 76 1027.6
20230202143542 52 251 8.0 18.0 0.00 0.00 0.00 77 1027.6
20230202143113 52 231 11.0 18.0 0.00 0.00 0.00 77 1027.7
20230202142544 52 202 8.0 18.0 0.00 0.00 0.00 78 1027.8
20230202142043 52 201 7.0 16.0 0.00 0.00 0.00 78 1027.7
20230202141550 52 221 7.0 16.0 0.00 0.00 0.00 78 1027.8
20230202141041 52 271 6.0 15.0 0.00 0.00 0.00 78 1027.9
20230202140544 52 225 8.0 15.0 0.00 0.00 0.00 79 1027.8
20230202140105 52 220 11.0 15.0 0.00 0.00 0.00 79 1027.9
20230202135543 52 239 8.0 15.0 0.00 0.00 0.00 79 1027.8
20230202135044 52 317 9.0 20.0 0.00 0.00 0.00 79 1027.9
20230202134554 52 203 10.0 20.0 0.00 0.00 0.00 79 1027.8
20230202134044 52 234 11.0 24.0 0.00 0.00 0.00 80 1027.9
20230202133543 52 252 7.0 24.0 0.00 0.00 0.00 81 1027.9
20230202133101 52 245 11.0 20.0 0.00 0.00 0.00 81 1027.8
20230202132542 51 240 10.0 18.0 0.00 0.00 0.00 82 1027.8
20230202132045 51 225 8.0 18.0 0.00 0.00 0.00 84 1027.8
20230202131559 51 221 8.0 23.0 0.00 0.00 0.00 84 1027.8
20230202131043 51 201 10.0 23.0 0.00 0.00 0.00 83 1027.8
20230202130543 52 234 12.0 20.0 0.00 0.00 0.00 81 1027.8
20230202130103 52 228 8.0 18.0 0.00 0.00 0.00 80 1027.8
20230202125545 52 226 7.0 20.0 0.00 0.00 0.00 80 1027.9
20230202125045 52 235 8.0 20.0 0.00 0.00 0.00 80 1028.0
20230202124601 52 226 7.0 18.0 0.00 0.00 0.00 79 1028.0
20230202124045 52 225 10.0 18.0 0.00 0.00 0.00 79 1028.1
20230202123542 52 234 10.0 17.0 0.00 0.00 0.00 79 1028.1
20230202123057 52 218 9.0 17.0 0.00 0.00 0.00 79 1028.0
20230202122542 52 209 7.0 15.0 0.00 0.00 0.00 79 1028.0
20230202122042 52 226 7.0 17.0 0.00 0.00 0.00 78 1027.9
20230202121553 52 232 8.0 17.0 0.00 0.00 0.00 78 1028.0
20230202121042 52 228 5.0 18.0 0.00 0.00 0.00 79 1028.0
20230202120543 52 230 7.0 18.0 0.00 0.00 0.00 78 1028.1
20230202120056 52 242 10.0 18.0 0.00 0.00 0.00 78 1028.3
20230202115540 52 195 8.0 15.0 0.00 0.00 0.00 79 1028.3
20230202115041 52 250 7.0 14.0 0.00 0.00 0.00 79 1028.6
20230202114554 52 234 6.0 16.0 0.00 0.00 0.00 79 1028.7
20230202114041 52 223 5.0 18.0 0.00 0.00 0.00 79 1028.5
20230202113544 52 216 8.0 18.0 0.00 0.00 0.00 79 1028.5
20230202113107 52 263 6.0 14.0 0.00 0.00 0.00 80 1028.5
20230202112545 51 216 8.0 17.0 0.00 0.00 0.00 80 1028.6
20230202112044 51 190 8.0 17.0 0.00 0.00 0.00 81 1028.6
20230202111601 51 207 8.0 15.0 0.00 0.00 0.00 82 1028.5
20230202111044 51 234 7.0 13.0 0.00 0.00 0.00 82 1028.5
20230202110546 51 215 5.0 11.0 0.00 0.00 0.00 83 1028.7
20230202110055 50 261 6.0 12.0 0.00 0.00 0.00 84 1028.7
20230202105545 50 240 4.0 13.0 0.00 0.00 0.00 84 1028.7
20230202105042 50 215 7.0 13.0 0.00 0.00 0.00 84 1028.7
20230202104554 50 210 5.0 11.0 0.00 0.00 0.00 85 1028.8
20230202104041 49 221 4.0 8.0 0.00 0.00 0.00 86 1028.8
20230202103542 49 227 3.0 8.0 0.00 0.00 0.00 86 1028.8
20230202103051 49 261 3.0 6.0 0.00 0.00 0.00 87 1028.7
20230202102542 48 206 3.0 6.0 0.00 0.00 0.00 87 1028.6
20230202102042 48 192 1.0 6.0 0.00 0.00 0.00 87 1028.6
20230202101602 48 205 3.0 6.0 0.00 0.00 0.00 87 1028.7
20230202101042 48 182 2.0 7.0 0.00 0.00 0.00 88 1028.6
20230202100543 48 198 2.0 7.0 0.00 0.00 0.00 87 1028.5
20230202100057 47 188 3.0 7.0 0.00 0.00 0.00 87 1028.4
20230202095545 47 179 2.0 6.0 0.00 0.00 0.00 88 1028.4
20230202095042 47 222 0.0 6.0 0.00 0.00 0.00 88 1028.4
20230202094555 47 198 1.0 7.0 0.00 0.00 0.00 88 1028.5
20230202094041 47 202 2.0 7.0 0.00 0.00 0.00 88 1028.4
20230202093541 46 169 2.0 7.0 0.00 0.00 0.00 88 1028.3
20230202093056 46 181 3.0 7.0 0.00 0.00 0.00 89 1028.4
20230202092541 46 175 3.0 6.0 0.00 0.00 0.00 88 1028.3
20230202092041 45 173 3.0 6.0 0.00 0.00 0.00 88 1028.3
20230202091550 45 194 3.0 7.0 0.00 0.00 0.00 88 1028.2
20230202091042 45 223 3.0 11.0 0.00 0.00 0.00 88 1028.2
20230202090544 46 177 2.0 11.0 0.00 0.00 0.00 88 1028.1
20230202090101 45 196 5.0 11.0 0.00 0.00 0.00 89 1028.2
20230202085544 45 211 5.0 8.0 0.00 0.00 0.00 88 1028.1
20230202085044 45 204 3.0 8.0 0.00 0.00 0.00 89 1028.2
20230202084551 45 188 4.0 8.0 0.00 0.00 0.00 89 1028.3
20230202084042 44 221 4.0 7.0 0.00 0.00 0.00 89 1028.3
20230202083546 44 226 3.0 5.0 0.00 0.00 0.00 90 1028.4
20230202083102 43 234 3.0 5.0 0.00 0.00 0.00 89 1028.5
20230202082541 43 237 3.0 7.0 0.00 0.00 0.00 89 1028.3
20230202082041 43 236 3.0 7.0 0.00 0.00 0.00 89 1028.4
20230202081609 43 227 3.0 6.0 0.00 0.00 0.00 89 1028.1
20230202081045 43 212 3.0 6.0 0.00 0.00 0.00 89 1028.0
20230202080544 42 232 3.0 6.0 0.00 0.00 0.00 89 1027.9
20230202080059 42 198 3.0 6.0 0.00 0.00 0.00 88 1027.8
20230202075541 42 219 2.0 5.0 0.00 0.00 0.00 88 1027.8
20230202075043 42 200 2.0 6.0 0.00 0.00 0.00 88 1027.7
20230202074553 42 204 2.0 6.0 0.00 0.00 0.00 87 1027.8
20230202074044 43 179 3.0 8.0 0.00 0.00 0.00 87 1027.7
20230202073541 43 177 3.0 9.0 0.00 0.00 0.00 87 1027.6
20230202073055 43 192 4.0 9.0 0.00 0.00 0.00 87 1027.7
20230202072542 42 183 3.0 6.0 0.00 0.00 0.00 88 1027.6
20230202072041 42 201 3.0 6.0 0.00 0.00 0.00 87 1027.7
20230202071607 42 192 2.0 5.0 0.00 0.00 0.00 87 1027.7
20230202071042 42 188 2.0 4.0 0.00 0.00 0.00 87 1027.6
20230202070540 42 182 1.0 5.0 0.00 0.00 0.00 86 1027.6
20230202070057 42 182 2.0 5.0 0.00 0.00 0.00 86 1027.6
20230202065541 42 188 2.0 4.0 0.00 0.00 0.00 86 1027.6
20230202065041 43 181 1.0 4.0 0.00 0.00 0.00 86 1027.6
20230202064605 43 181 2.0 4.0 0.00 0.00 0.00 86 1027.5
20230202064045 43 194 2.0 6.0 0.00 0.00 0.00 86 1027.4
20230202063543 43 173 3.0 6.0 0.00 0.00 0.00 85 1027.3
20230202063100 43 188 2.0 7.0 0.00 0.00 0.00 85 1027.4
20230202062541 43 185 3.0 7.0 0.00 0.00 0.00 85 1027.3
20230202062041 43 192 3.0 7.0 0.00 0.00 0.00 84 1027.4
20230202061600 43 184 2.0 8.0 0.00 0.00 0.00 84 1027.3
20230202061041 44 224 2.0 8.0 0.00 0.00 0.00 84 1027.2
20230202060542 44 181 3.0 7.0 0.00 0.00 0.00 84 1027.3
20230202060106 44 215 3.0 7.0 0.00 0.00 0.00 84 1027.2
20230202055541 44 189 3.0 7.0 0.00 0.00 0.00 84 1027.5
20230202055041 44 161 3.0 7.0 0.00 0.00 0.00 83 1027.3
20230202054607 44 222 2.0 7.0 0.00 0.00 0.00 83 1027.3
20230202054041 44 224 2.0 6.0 0.00 0.00 0.00 83 1027.3
20230202053544 44 217 2.0 8.0 0.00 0.00 0.00 83 1027.3
20230202053106 44 212 3.0 8.0 0.00 0.00 0.00 82 1027.3
20230202052541 44 214 3.0 6.0 0.00 0.00 0.00 82 1027.1
20230202052040 44 203 3.0 5.0 0.00 0.00 0.00 82 1027.2
20230202051617 45 186 2.0 6.0 0.00 0.00 0.00 82 1027.4
20230202051040 45 204 2.0 6.0 0.00 0.00 0.00 81 1027.4
20230202050542 45 197 2.0 7.0 0.00 0.00 0.00 81 1027.2
20230202050107 45 194 4.0 7.0 0.00 0.00 0.00 81 1027.3
20230202045542 45 189 3.0 7.0 0.00 0.00 0.00 81 1027.2
20230202045041 45 191 3.0 7.0 0.00 0.00 0.00 81 1027.1
20230202044553 45 207 3.0 7.0 0.00 0.00 0.00 81 1027.2
20230202044041 45 223 2.0 6.0 0.00 0.00 0.00 81 1027.2
20230202043542 45 160 2.0 4.0 0.00 0.00 0.00 81 1027.3
20230202043053 45 202 2.0 4.0 0.00 0.00 0.00 82 1027.3
20230202042542 45 217 1.0 5.0 0.00 0.00 0.00 82 1027.3
20230202042054 45 231 3.0 9.0 0.00 0.00 0.00 82 1027.3
20230202041615 45 211 4.0 9.0 0.00 0.00 0.00 82 1027.3
20230202041042 45 255 4.0 9.0 0.00 0.00 0.00 82 1027.2
20230202040542 45 247 3.0 9.0 0.00 0.00 0.00 82 1027.3
20230202040052 45 237 4.0 9.0 0.00 0.00 0.00 82 1027.2
20230202035543 45 257 3.0 11.0 0.00 0.00 0.00 82 1027.1
20230202035041 45 241 3.0 12.0 0.00 0.00 0.00 82 1027.2
20230202034550 45 259 4.0 12.0 0.00 0.00 0.00 82 1027.3
20230202034042 45 247 4.0 9.0 0.00 0.00 0.00 81 1027.2
20230202033541 45 250 4.0 9.0 0.00 0.00 0.00 81 1027.2
20230202033050 45 233 3.0 8.0 0.00 0.00 0.00 81 1027.2
20230202032541 45 253 3.0 9.0 0.00 0.00 0.00 80 1027.3
20230202032042 46 275 5.0 10.0 0.00 0.00 0.00 80 1027.1
20230202031552 45 258 5.0 11.0 0.00 0.00 0.00 80 1027.3
20230202031041 45 257 6.0 12.0 0.00 0.00 0.00 81 1027.3
20230202030541 45 276 4.0 12.0 0.00 0.00 0.00 81 1027.0
20230202030103 45 263 5.0 12.0 0.00 0.00 0.00 81 1027.0
20230202025543 46 211 5.0 10.0 0.00 0.00 0.00 81 1027.0
20230202025044 46 239 5.0 10.0 0.00 0.00 0.00 81 1027.1
20230202024551 46 238 5.0 9.0 0.00 0.00 0.00 81 1027.2
20230202024044 46 223 5.0 10.0 0.00 0.00 0.00 81 1027.3
20230202023542 46 243 4.0 10.0 0.00 0.00 0.00 81 1027.3
20230202023053 46 232 5.0 10.0 0.00 0.00 0.00 81 1027.3
20230202022543 46 244 4.0 8.0 0.00 0.00 0.00 82 1027.2
20230202022041 46 229 4.0 7.0 0.00 0.00 0.00 82 1027.2
20230202021554 46 243 3.0 10.0 0.00 0.00 0.00 81 1027.4
20230202021042 46 205 3.0 11.0 0.00 0.00 0.00 81 1027.3
20230202020541 47 221 5.0 11.0 0.00 0.00 0.00 81 1027.3
20230202020055 47 205 5.0 11.0 0.00 0.00 0.00 80 1027.3
20230202015542 47 172 4.0 10.0 0.00 0.00 0.00 80 1027.2
20230202015042 47 212 3.0 11.0 0.00 0.00 0.00 79 1027.2
20230202014602 47 208 5.0 11.0 0.00 0.00 0.00 79 1027.3
20230202014042 47 250 5.0 11.0 0.00 0.00 0.00 79 1027.2
20230202013546 47 239 5.0 13.0 0.00 0.00 0.00 79 1027.4
20230202013052 47 234 4.0 13.0 0.00 0.00 0.00 79 1027.3
20230202012541 47 253 3.0 8.0 0.00 0.00 0.00 79 1027.3
20230202012042 47 206 3.0 11.0 0.00 0.00 0.00 79 1027.3
20230202011559 47 250 4.0 11.0 0.00 0.00 0.00 78 1027.4
20230202011041 47 208 7.0 12.0 0.00 0.00 0.00 78 1027.3
20230202010541 47 205 4.0 12.0 0.00 0.00 0.00 78 1027.3
20230202010051 47 236 4.0 9.0 0.00 0.00 0.00 79 1027.4
20230202005543 47 230 5.0 10.0 0.00 0.00 0.00 78 1027.4
20230202005042 47 249 4.0 11.0 0.00 0.00 0.00 78 1027.4
20230202004552 48 270 4.0 11.0 0.00 0.00 0.00 78 1027.5
20230202004042 47 236 4.0 11.0 0.00 0.00 0.00 78 1027.5
20230202003541 47 246 4.0 11.0 0.00 0.00 0.00 78 1027.4
20230202003058 48 230 3.0 12.0 0.00 0.00 0.00 78 1027.6
20230202002541 48 244 6.0 12.0 0.00 0.00 0.00 78 1027.6
20230202002042 48 210 4.0 12.0 0.00 0.00 0.00 78 1027.6
20230202001551 47 234 4.0 12.0 0.00 0.00 0.00 78 1027.6
20230202001041 47 244 6.0 12.0 0.00 0.00 0.00 79 1027.6
20230202000541 47 229 5.0 11.0 0.00 0.00 0.00 79 1027.7
20230202000055 47 202 5.0 11.0 0.00 0.00 0.00 80 1027.6
20230201235541 47 220 5.0 12.0 0.00 0.00 0.00 80 1027.5
20230201235042 47 219 5.0 12.0 0.00 0.00 0.00 80 1027.5
20230201234547 47 234 6.0 12.0 0.00 0.00 0.00 80 1027.4
20230201234126 47 259 4.0 10.0 0.00 0.00 0.00 80 1027.3
20230201233545 47 221 4.0 8.0 0.00 0.00 0.00 80 1027.4
20230201233058 47 236 4.0 11.0 0.00 0.00 0.00 80 1027.3
20230201232548 47 220 4.0 13.0 0.00 0.00 0.00 79 1027.3
20230201232044 47 252 5.0 13.0 0.00 0.00 0.00 79 1027.3
20230201231553 47 232 7.0 13.0 0.00 0.00 0.00 80 1027.3
20230201231045 47 236 5.0 13.0 0.00 0.00 0.00 80 1027.3
20230201230544 47 215 5.0 13.0 0.00 0.00 0.00 80 1027.3
20230201230111 47 225 7.0 14.0 0.00 0.00 0.00 80 1027.1
20230201225545 47 198 6.0 14.0 0.00 0.00 0.00 80 1027.0
20230201225045 47 240 5.0 11.0 0.00 0.00 0.00 80 1027.0
20230201224551 47 215 5.0 10.0 0.00 0.00 0.00 80 1026.9
20230201224044 47 240 5.0 11.0 0.00 0.00 0.00 80 1027.0
20230201223545 47 229 4.0 11.0 0.00 0.00 0.00 80 1027.1
20230201223106 47 209 7.0 11.0 0.00 0.00 0.00 80 1027.1
20230201222545 47 263 4.0 11.0 0.00 0.00 0.00 80 1027.1
20230201222044 47 234 5.0 11.0 0.00 0.00 0.00 80 1027.1
20230201221604 47 259 4.0 12.0 0.00 0.00 0.00 80 1027.2
20230201221045 47 241 5.0 12.0 0.00 0.00 0.00 80 1027.1
20230201220545 47 225 6.0 14.0 0.00 0.00 0.00 80 1027.2
20230201220103 47 252 5.0 14.0 0.00 0.00 0.00 80 1027.1
20230201215541 47 235 6.0 14.0 0.00 0.00 0.00 80 1027.2
20230201215046 47 200 5.0 16.0 0.00 0.00 0.00 80 1027.1
20230201214558 47 241 8.0 16.0 0.00 0.00 0.00 80 1027.0
20230201214044 47 215 6.0 11.0 0.00 0.00 0.00 81 1027.0
20230201213545 47 205 5.0 11.0 0.00 0.00 0.00 81 1027.0
20230201213055 47 273 6.0 11.0 0.00 0.00 0.00 81 1027.0
20230201212545 47 234 6.0 13.0 0.00 0.00 0.00 81 1027.1
20230201212041 47 229 5.0 14.0 0.00 0.00 0.00 81 1027.0
20230201211607 47 230 6.0 14.0 0.00 0.00 0.00 80 1027.0
20230201211044 47 177 6.0 14.0 0.00 0.00 0.00 80 1026.8
20230201210544 47 224 6.0 11.0 0.00 0.00 0.00 80 1026.8
20230201210108 47 217 6.0 13.0 0.00 0.00 0.00 80 1027.0
20230201205544 47 209 6.0 13.0 0.00 0.00 0.00 80 1026.8
20230201205045 47 164 6.0 14.0 0.00 0.00 0.00 80 1026.8
20230201204558 47 216 6.0 15.0 0.00 0.00 0.00 80 1026.7
20230201204045 47 217 8.0 15.0 0.00 0.00 0.00 80 1026.6
20230201203547 47 238 6.0 13.0 0.00 0.00 0.00 80 1026.4
20230201203056 47 209 6.0 17.0 0.00 0.00 0.00 80 1026.6
20230201202543 47 207 7.0 17.0 0.00 0.00 0.00 80 1026.4
20230201202044 47 224 8.0 13.0 0.00 0.00 0.00 81 1026.4